This demonstration page uses our WeatherBlox Daily Observations layout. Learn more.

Left ArrowRight Arrow

39.29038, -76.61219

Hourly Observations for January 24, 2020

Temp ( °F °C ) Dew Point ( °F °C ) Humidity (%) Winds ( mph kmh ) Pressure ( in mb ) Visibility ( mi km ) Precip ( " mm )
12:54 am 00:54 undefined 37 2.8 24 -4.4 59 59 undefined N/A 30.33 1027 N/A 0.00 0.00
1:54 am 01:54 undefined 36 2.2 25 -3.9 64 64 undefined N/A 30.33 1027 N/A 0.00 0.00
2:54 am 02:54 undefined 35 1.7 25 -3.9 67 67 undefined N/A 30.33 1027 N/A 0.00 0.00
3:54 am 03:54 undefined 35 1.7 25 -3.9 67 67 undefined N/A 30.32 1027 N/A 0.00 0.00
4:54 am 04:54 undefined 36 2.2 25 -3.9 64 64 undefined N/A 30.32 1027 N/A 0.00 0.00
5:54 am 05:54 undefined 36 2.2 25 -3.9 64 64 undefined N/A 30.32 1027 N/A 0.00 0.00
6:54 am 06:54 undefined 36 2.2 28 -2.2 73 73 undefined N/A 30.31 1027 N/A 0.00 0.00
7:54 am 07:54 undefined 38 3.3 28 -2.2 68 68 undefined N/A 30.34 1027 N/A 0.00 0.00
8:54 am 08:54 undefined 39 3.9 26 -3.3 60 60 undefined N/A 30.33 1027 N/A 0.00 0.00
9:54 am 09:54 undefined 42 5.6 30 -1.1 62 62 undefined N/A 30.32 1027 N/A 0.00 0.00
10:54 am 10:54 undefined 46 7.8 34 1.1 63 63 undefined N/A 30.31 1026 N/A 0.00 0.00
11:54 am 11:54 undefined 50 10 37 2.8 61 61 undefined N/A 30.29 1026 N/A 0.00 0.00
12:54 pm 12:54 undefined 50 10 38 3.3 63 63 undefined N/A 30.26 1025 N/A 0.00 0.00
1:54 pm 13:54 undefined 50 10 39 3.9 66 66 undefined N/A 30.22 1023 N/A 0.00 0.00
2:54 pm 14:54 undefined 51 10.6 40 4.4 66 66 undefined N/A 30.21 1023 N/A 0.00 0.00
3:54 pm 15:54 undefined 51 10.6 41 5 69 69 undefined N/A 30.19 1022 N/A 0.00 0.00
4:54 pm 16:54 undefined 51 10.6 40 4.4 66 66 undefined N/A 30.17 1022 N/A 0.00 0.00
5:54 pm 17:54 undefined 49 9.4 41 5 74 74 undefined N/A 30.19 1022 N/A 0.00 0.00
6:54 pm 18:54 undefined 48 8.9 41 5 77 77 undefined N/A 30.19 1022 N/A 0.00 0.00
7:54 pm 19:54 undefined 48 8.9 41 5 77 77 undefined N/A 30.17 1022 N/A 0.00 0.00
8:54 pm 20:54 undefined 47 8.3 41 5 80 80 undefined N/A 30.15 1021 N/A 0.00 0.00
9:54 pm 21:54 undefined 47 8.3 41 5 80 80 undefined N/A 30.13 1020 N/A 0.00 0.00
10:54 pm 22:54 undefined 47 8.3 41 5 80 80 undefined N/A 30.10 1019 N/A 0.00 0.00
11:54 pm 23:54 undefined 47 8.3 41 5 80 80 undefined N/A 30.08 1019 N/A 0.00 0.00

Powered by AerisWeather